Moab, UT

6:18 AM MDT on September 22, 2019 (GMT -0600)
Mountain View | | Change Station

Elev 4091 ft 38.56 °N, 109.55 °W | Updated 6 seconds ago

Clear
Clear
45.5 °F
Feels Like 46 °F
N
0
Wind Variable Wind from SE
Gusts 0.0 mph

Today
High -- | Low -- °F
--% Chance of Precip.
Yesterday
High -- | Low -- °F
Precip. -- in
Pressure 30.05 in
Visibility 10.0 miles
Clouds Clear
Windchill 46 °F
Dew Point 26 °F
Humidity 46%
Rainfall 0.00 in
Snow Depth Not available.
7:05 AM 7:15 PM
Last Quarter, 46% visible
METAR KCNY 221153Z AUTO 16003KT 10SM CLR 07/M06 A3014 RMK AO2 SLP175 T00671056 10144 20067 53012
Pressure 30.05 in
Visibility 10.0 miles
Clouds Clear
Windchill 46 °F
Dew Point 26 °F
Humidity 46%
Rainfall 0.00 in
Snow Depth Not available.
7:05 AM 7:15 PM
Last Quarter, 46% visible
METAR KCNY 221153Z AUTO 16003KT 10SM CLR 07/M06 A3014 RMK AO2 SLP175 T00671056 10144 20067 53012

Get Severe Weather Alerts

Thanks for signing up!

Be on the lookout for a verification email in your inbox.

You'll start receiving the daily forecast at 6 AM.

×

10-Day Weather Forecast

Almanac

Astronomy

Sep. 22, 2019 Rise Set
Actual Time
Civil Twilight
Nautical Twilight
Astronomical Twilight
Moon
Length of Visible Light
Length of Day
Tomorrow will be .
, % of the Moon is Illuminated

Today's Extremes

State Highs State Lows

Community

WunderPhotos

Category 6

Welcome to Category 6. This is the collective home for Weather Underground's featured writeups by Dr. Jeff Masters (right), Bob Henson (left), Chris Burt, and other regular contributors.

Nearby

Air Quality

  Air Quality AQ Index Pollutant
Not available.

Snow Depth

Station Depth Elevation

Earthquake Activity

City Distance Mag. Time & Date
Minimum magnitude displayed is 2.5.

Coastal Water Temperatures

Place Temperature

Stations

Nearby Weather Stations

Station Location Temp. Windchill Dew Point Humidity Wind Precip. Elev Updated Type
                   

Watches & Warnings

There are currently no watches in effect.